Lone Rock, WI

9:41 PM CDT on September 28, 2016 (GMT -0500)
Tri-County Regional

Weather History for KLNR - January, 2012

Change the Weather History Date:

Monday, January 23, 2012

  Actual Average Record
Temperature  
Mean Temperature 30 °F -  
Max Temperature 34 °F 25 °F 41 °F (2002)
Min Temperature 25 °F 9 °F -20 °F (2011)
Degree Days  
Heating Degree Days 35    
Moisture  
Dew Point 26 °F    
Average Humidity 82    
Maximum Humidity 93    
Minimum Humidity 69    
Precipitation  
Precipitation 0.25 in - - ()
Sea Level Pressure  
Sea Level Pressure 29.50 in    
Wind  
Wind Speed 9 mph (WNW)    
Max Wind Speed 21 mph    
Max Gust Speed 30 mph    
Visibility 3 miles    
Events Fog , Rain , Snow    
Averages and records for this station are not official NWS values.
T = Trace of Precipitation, MM = Missing Value Source: NWS Daily Summary

Daily Weather History Graph

Daily Weather History Graph

Search for Another Location

Airport or City:

Trip Planner

Search our weather history database for the weather conditions in past years. The results will help you decide how hot, cold, wet, or windy it might be!

Date:

Astronomy

Jan. 23, 2012 Rise Set
Actual Time 7:25 AM CST 5:00 PM CST
Civil Twilight 6:54 AM CST 5:31 PM CST
Nautical Twilight 6:19 AM CST 6:06 PM CST
Astronomical Twilight 5:45 AM CST 6:39 PM CST
Moon 7:18 AM CST (1/23) 5:50 PM CST (1/23)
Length of Visible Light 10h 37m
Length of Day
9h 35m
New Moon, 0% of the Moon is Illuminated
Jan 23
New Moon
Jan 30
First Quarter
Feb 7
Full
Feb 14
Last Quarter
Feb 21
New

Hourly Weather History & Observations

Time (CST) Temp. Windchill Dew Point Humidity Pressure Visibility Wind Dir Wind Speed Gust Speed Precip Events Conditions
12:05 AM 33.8 °F 28.6 °F 32.0 °F 93% 29.41 in 2.0 mi ENE 5.8 mph - 0.01 in   Overcast
12:36 AM 33.8 °F 28.6 °F 32.0 °F 93% 29.41 in 1.5 mi ENE 5.8 mph - 0.03 in   Overcast
12:56 AM 34.0 °F 27.2 °F 32.0 °F 92% 29.40 in 1.2 mi ENE 8.1 mph - 0.05 in Rain Light Rain
2:26 AM 33.8 °F - 32.0 °F 93% 29.35 in 2.5 mi Calm Calm - 0.03 in Rain Light Rain
2:38 AM 33.8 °F - 32.0 °F 93% 29.35 in 3.0 mi Calm Calm - 0.04 in   Overcast
2:50 AM 33.8 °F 29.6 °F 32.0 °F 93% 29.33 in 1.8 mi NE 4.6 mph - 0.06 in Rain Light Rain
2:56 AM 34.0 °F - 32.0 °F 92% 29.34 in 1.5 mi Calm Calm - 0.07 in Rain Light Rain
3:05 AM 33.8 °F - 32.0 °F 93% 29.34 in 3.0 mi Calm Calm - 0.01 in Rain Light Rain
3:56 AM 34.0 °F 28.0 °F 30.9 °F 89% 29.31 in 2.5 mi North 6.9 mph - 0.06 in Rain Light Rain
4:03 AM 33.8 °F 30.8 °F 30.2 °F 87% 29.31 in 4.0 mi North 3.5 mph - 0.00 in Rain Light Rain
4:34 AM 33.8 °F 29.6 °F 30.2 °F 87% 29.31 in 6.0 mi NW 4.6 mph - 0.02 in   Overcast
5:56 AM 34.0 °F 28.0 °F 30.9 °F 89% 29.32 in 4.0 mi NW 6.9 mph - 0.03 in   Overcast
6:05 AM 33.8 °F 29.6 °F 30.2 °F 87% 29.31 in 5.0 mi WNW 4.6 mph - N/A   Overcast
6:13 AM 33.8 °F 27.7 °F 30.2 °F 87% 29.32 in 5.0 mi WNW 6.9 mph - N/A   Overcast
6:56 AM 33.1 °F 25.5 °F 30.0 °F 89% 29.35 in 4.0 mi WNW 9.2 mph - 0.01 in   Overcast
7:19 AM 33.8 °F 26.4 °F 30.2 °F 87% 29.36 in 3.0 mi WNW 9.2 mph - 0.01 in Snow Light Snow
7:28 AM 33.8 °F 26.4 °F 30.2 °F 87% 29.36 in 1.8 mi WNW 9.2 mph - 0.01 in Snow Light Snow
7:56 AM 33.1 °F 24.4 °F 30.0 °F 89% 29.39 in 0.5 mi WNW 11.5 mph - 0.02 in Fog , Snow Light Snow
8:08 AM 33.8 °F 25.3 °F 28.4 °F 81% 29.38 in 0.5 mi WNW 11.5 mph - 0.00 in Fog , Snow Light Snow
8:16 AM 32.0 °F 23.0 °F 28.4 °F 87% 29.39 in 0.5 mi WNW 11.5 mph - 0.00 in Fog , Snow Light Snow
8:28 AM 32.0 °F 22.5 °F 28.4 °F 87% 29.40 in 0.8 mi WNW 12.7 mph 23.0 mph 0.00 in Snow Light Snow
8:39 AM 32.0 °F 22.1 °F 28.4 °F 87% 29.40 in 1.0 mi WNW 13.8 mph 23.0 mph 0.00 in Snow Light Snow
8:41 AM 32.0 °F 22.1 °F 28.4 °F 87% 29.40 in 1.0 mi WNW 13.8 mph 23.0 mph 0.00 in Snow Light Snow
8:56 AM 32.0 °F 22.1 °F 28.0 °F 85% 29.42 in 0.5 mi WNW 13.8 mph - 0.00 in Fog , Snow Light Snow
9:13 AM 32.0 °F 21.6 °F 26.6 °F 80% 29.42 in 0.8 mi WNW 15.0 mph - 0.01 in Snow Light Snow
9:20 AM 30.2 °F 19.3 °F 26.6 °F 86% 29.43 in 0.8 mi West 15.0 mph - 0.01 in Snow Light Snow
9:53 AM 30.2 °F 19.3 °F 26.6 °F 86% 29.46 in 1.2 mi WNW 15.0 mph - 0.01 in Snow Light Snow
9:56 AM 30.9 °F 19.8 °F 25.0 °F 79% 29.47 in 1.8 mi WNW 16.1 mph - 0.01 in Snow Light Snow
10:04 AM 30.2 °F 20.2 °F 24.8 °F 80% 29.46 in 2.5 mi WNW 12.7 mph 23.0 mph 0.00 in Snow Light Snow
10:37 AM 30.2 °F 18.5 °F 24.8 °F 80% 29.47 in 4.0 mi WNW 17.3 mph - 0.00 in   Haze
10:56 AM 30.9 °F 19.4 °F 24.1 °F 76% 29.49 in 5.0 mi West 17.3 mph - 0.00 in   Haze
11:48 AM 30.2 °F 17.8 °F 24.8 °F 80% 29.50 in 2.5 mi West 19.6 mph 25.3 mph 0.00 in Snow Light Snow
11:56 AM 30.0 °F 17.9 °F 23.0 °F 75% 29.51 in 4.0 mi West 18.4 mph - 0.00 in   Haze
12:26 PM 30.2 °F 17.4 °F 23.0 °F 75% 29.51 in 5.0 mi West 20.7 mph 27.6 mph N/A   Haze
12:56 PM 28.9 °F 15.8 °F 21.9 °F 75% 29.54 in 6.0 mi WNW 20.7 mph 26.5 mph N/A   Haze
1:56 PM 28.9 °F 16.1 °F 21.0 °F 72% 29.57 in 6.0 mi West 19.6 mph 29.9 mph N/A   Haze
3:56 PM 28.0 °F 16.1 °F 19.0 °F 69% 29.67 in 4.0 mi West 16.1 mph - N/A   Haze
4:56 PM 28.0 °F 17.0 °F 19.0 °F 69% 29.72 in 3.0 mi West 13.8 mph - N/A   Haze
5:28 PM 28.4 °F 18.5 °F 19.4 °F 69% 29.73 in 5.0 mi West 11.5 mph - N/A   Haze
5:53 PM 28.4 °F 18.0 °F 19.4 °F 69% 29.74 in 5.0 mi West 12.7 mph - N/A   Haze
5:56 PM 28.0 °F 18.1 °F 19.9 °F 72% 29.76 in 5.0 mi West 11.5 mph - N/A   Haze
6:04 PM 28.4 °F 18.0 °F 19.4 °F 69% 29.75 in 5.0 mi West 12.7 mph - N/A   Haze
6:20 PM 28.4 °F 18.0 °F 21.2 °F 74% 29.76 in 5.0 mi West 12.7 mph - N/A   Haze
6:56 PM 28.0 °F 16.5 °F 19.9 °F 72% 29.79 in 6.0 mi West 15.0 mph 29.9 mph N/A   Haze
7:56 PM 27.0 °F 14.7 °F 19.9 °F 75% 29.82 in 6.0 mi West 16.1 mph 23.0 mph N/A   Haze
8:56 PM 27.0 °F 14.7 °F 19.9 °F 75% 29.84 in 5.0 mi West 16.1 mph 20.7 mph N/A   Haze
9:56 PM 26.1 °F 14.5 °F 19.9 °F 78% 29.86 in 4.0 mi West 13.8 mph - N/A   Haze
10:56 PM 26.1 °F 14.0 °F 19.0 °F 75% 29.88 in 5.0 mi West 15.0 mph - N/A   Haze
11:56 PM 25.0 °F 14.8 °F 19.0 °F 78% 29.90 in 5.0 mi West 10.4 mph - N/A   Haze